Location: ???????
(52.3000°N, 54.4667°E)
Time: 21:24:50
(UTC+00:00)

ATLAS CENTAUR R/B - Pass Details

Date: 24 January 2020
Orbit: 458 x 690 km, 64.6° (Epoch: 06 February)

Event Time Altitude Azimuth Distance (km) Brightness Sun altitude
Rises 14:10:03 0° 317° (NW) 2,822 5.3 -11.5°
Reaches altitude 10° 14:12:27 10° 323° (NW) 1,876 4.3 -11.9°
Maximum altitude 14:16:32 51° 39° (NE) 688 1.5 -12.5°
Enters shadow 14:19:39 15° 113° (ESE) 1,478 3.0 -13.0°
